Simultaneous Nadir Overpasses (SNOs) Predictions

Prediction of SNOs between LANDSAT-8 and METOP-B Satellite Orbit:

Table of predicted SNOs for the next 14.0 days since TLE Epoch: 1/3/2015
Index Date (LANDSAT-8) Time (LANDSAT-8) Lat,Lon (LANDSAT-8) SZA (LANDSAT-8 ) Date (METOP-B) Time (METOP-B) Lat,Lon (METOP-B) SZA (METOP-B ) Distance(km) Time Diff (sec)
1 01/04/2015 01:39:12 81.04,-166.25 105.51 01/04/2015 01:38:03 81.03,-166.40 105.47 2.81 69
2 01/04/2015 02:28:38 -81.07, 1.72 74.45 01/04/2015 02:28:42 -81.06, 1.72 74.45 0.18 4
3 01/06/2015 21:13:26 81.04, -99.80 105.17 01/06/2015 21:12:27 81.04, -99.89 105.14 1.75 59
4 01/06/2015 22:02:52 -81.07, 68.20 74.78 01/06/2015 22:03:06 -81.07, 68.23 74.78 0.44 14
5 01/09/2015 16:47:39 81.05, -33.27 104.79 01/09/2015 16:46:50 81.04, -33.44 104.75 3.09 49
6
